Location: Newark
(5.8900°S, 42.6378°W)
Time: 18:07:50
(UTC+00:00)

Explorer 11/Cluster Stage 4 - Visible Passes

Search period start: 22 September 2019 00:00
Search period end: 02 October 2019 00:00
Orbit: 467 x 1260 km, 28.8° (Epoch: 21 September)

Date Brightness Start Highest point End Pass type
(mag) Time Alt. Az. Time Alt. Az. Time Alt. Az.
22 Sep 7.5 07:49:05 10° NNW 07:52:10 26° NNE 07:55:31 10° E visible
22 Sep 9.7 22:29:30 10° NW 22:30:11 10° NNW 22:30:52 10° NNW visible
23 Sep 6.9 07:39:04 15° NNW 07:41:40 34° NNE 07:45:12 10° E visible
24 Sep 6.3 07:29:38 27° NNW 07:31:10 46° NNE 07:34:49 10° ESE visible
25 Sep 5.6 07:20:10 55° NNW 07:20:42 65° NNE 07:24:23 10° ESE visible
26 Sep 5.6 07:10:39 69° ESE 07:10:39 69° ESE 07:13:53 10° ESE visible
27 Sep 6.8 07:01:04 36° SE 07:01:04 36° SE 07:03:22 10° SE visible
28 Sep 7.7 06:51:25 21° SE 06:51:25 21° SE 06:52:48 10° SE visible
29 Sep 8.4 06:41:42 13° SE 06:41:42 13° SE 06:42:12 10° SE visible
